XW7RMR Weather Reports


time (UTC)temp
F
wind
direction
speed
knots
gust
knots
rain 1hr
in
rain 24hr
in
rain mn
in
humidity
%
barometer
mb
20260503195507 84 37 0.9 2.6 0.00 0.00 0.00 35 1008.7
20260503195003 84 62 0.9 0.9 0.00 0.00 0.00 37 1008.8
20260503194500 84 137 0.9 1.7 0.00 0.00 0.00 37 1008.7
20260503193955 84 83 1.7 2.6 0.00 0.00 0.00 36 1008.7
20260503193451 82 111 0.0 0.9 0.00 0.00 0.00 39 1008.8
20260503192947 82 76 1.7 1.7 0.00 0.00 0.00 38 1008.9
20260503192443 83 357 0.0 0.9 0.00 0.00 0.00 38 1008.9
20260503191939 83 28 1.7 1.7 0.00 0.00 0.00 39 1009.1
20260503191437 82 68 2.6 3.5 0.00 0.00 0.00 39 1009.0
20260503190933 82 67 0.9 0.9 0.00 0.00 0.00 40 1009.0
20260503190430 81 26 2.6 3.5 0.00 0.00 0.00 40 1009.1
20260503185927 81 89 1.7 2.6 0.00 0.00 0.00 41 1009.3
20260503185424 81 154 2.6 2.6 0.00 0.00 0.00 40 1009.3
20260503184923 80 55 0.9 0.9 0.00 0.00 0.00 42 1009.3
20260503184420 80 83 0.9 1.7 0.00 0.00 0.00 43 1009.4
20260503183916 79 34 0.9 2.6 0.00 0.00 0.00 43 1009.5
20260503183412 80 349 2.6 2.6 0.00 0.00 0.00 44 1009.4
20260503182910 79 90 0.9 0.9 0.00 0.00 0.00 45 1009.4
20260503182409 79 40 3.5 3.5 0.00 0.00 0.00 44 1009.4
20260503181905 79 9 2.6 3.5 0.00 0.00 0.00 45 1009.6
20260503181402 78 49 0.0 0.0 0.00 0.00 0.00 45 1009.5
20260503180859 78 119 0.9 1.7 0.00 0.00 0.00 45 1009.6
20260503180357 77 66 1.7 2.6 0.00 0.00 0.00 46 1009.7
20260503175853 77 77 1.7 3.5 0.00 0.00 0.00 47 1009.7
20260503175351 77 121 0.9 0.9 0.00 0.00 0.00 48 1009.7
20260503174847 76 57 1.7 2.6 0.00 0.00 0.00 50 1009.7
20260503174345 76 47 0.9 0.9 0.00 0.00 0.00 50 1009.8
20260503173845 76 52 3.5 3.5 0.00 0.00 0.00 49 1009.9
20260503173342 77 65 3.5 7.8 0.00 0.00 0.00 48 1009.9
20260503172838 76 94 0.0 0.0 0.00 0.00 0.00 46 1009.9
20260503172336 77 105 0.0 0.0 0.00 0.00 0.00 52 1009.9
20260503171832 75 69 0.0 0.0 0.00 0.00 0.00 57 1009.9
20260503171329 75 42 0.9 0.9 0.00 0.00 0.00 56 1009.9
20260503170826 75 254 0.9 1.7 0.00 0.00 0.00 58 1009.8
20260503170322 73 32 0.0 0.0 0.00 0.00 0.00 64 1009.9
20260503150715 58 92 0.0 0.0 0.00 0.00 0.00 86 1010.6
20260503150211 57 98 0.9 0.9 0.00 0.00 0.00 89 1010.7
20260503140136 53 76 0.0 0.0 0.00 0.00 0.00 96 1010.4
20260503131105 50 76 0.0 0.0 0.00 0.00 0.00 99 1010.1
20260503130602 50 87 0.0 0.0 0.00 0.00 0.00 99 1010.1
20260503110453 51 45 0.0 0.0 0.00 0.00 0.00 98 1010.3
20260503090344 54 26 0.0 0.0 0.00 0.00 0.00 95 1010.9
20260503081311 55 39 0.0 0.0 0.00 0.00 0.00 94 1011.3
20260503080808 55 60 0.0 0.0 0.00 0.00 0.00 93 1011.1
20260503080305 55 66 0.0 0.0 0.00 0.00 0.00 93 1011.1
20260503072741 57 21 0.0 0.0 0.00 0.00 0.00 91 1011.3
20260503072238 57 93 0.0 0.0 0.00 0.00 0.00 91 1011.4
20260503071734 57 84 0.0 0.9 0.00 0.00 0.00 91 1011.2
20260503071231 57 46 0.0 0.0 0.00 0.00 0.00 91 1011.2
20260503070728 57 136 0.9 1.7 0.00 0.00 0.00 90 1011.3
20260503070226 57 96 1.7 1.7 0.00 0.00 0.00 91 1011.2
20260503060151 58 51 0.0 0.0 0.00 0.00 0.00 87 1011.1
20260503054638 59 56 0.0 0.0 0.00 0.00 0.00 85 1011.2
20260503054135 59 0 0.0 0.9 0.00 0.00 0.00 85 1011.2
20260503053633 60 280 1.7 1.7 0.00 0.00 0.00 85 1011.4
20260503053132 60 55 0.0 0.0 0.00 0.00 0.00 84 1011.4
20260503052627 60 56 0.0 0.0 0.00 0.00 0.00 84 1011.2
20260503052124 60 49 0.0 0.0 0.00 0.00 0.00 83 1011.4
20260503051619 61 121 0.0 0.9 0.00 0.00 0.00 81 1011.3
20260503051118 62 120 2.6 2.6 0.00 0.00 0.00 79 1011.3
20260503050614 62 81 0.0 0.0 0.00 0.00 0.00 78 1011.4
20260503050110 62 70 0.0 0.0 0.00 0.00 0.00 78 1011.0
20260503045608 62 103 0.0 0.9 0.00 0.00 0.00 78 1011.1
20260503045105 62 139 0.9 0.9 0.00 0.00 0.00 78 1011.0
20260503044601 62 63 0.0 0.0 0.00 0.00 0.00 78 1010.8
20260503044059 62 41 0.9 0.9 0.00 0.00 0.00 78 1010.6
20260503043555 62 347 0.0 0.9 0.00 0.00 0.00 77 1010.8
20260503043052 63 84 0.0 0.0 0.00 0.00 0.00 77 1010.8
20260503042549 63 60 0.0 0.0 0.00 0.00 0.00 77 1010.8
20260503042045 63 317 0.9 2.6 0.00 0.00 0.00 77 1010.8
20260503041543 63 11 0.0 0.9 0.00 0.00 0.00 76 1010.7
20260503041040 63 23 0.9 0.9 0.00 0.00 0.00 76 1010.6
20260503040537 63 56 0.0 0.9 0.00 0.00 0.00 76 1010.7
20260503040034 63 12 2.6 3.5 0.00 0.00 0.00 76 1010.7
20260503035531 63 35 1.7 1.7 0.00 0.00 0.00 76 1010.8
20260503035029 63 352 0.9 1.7 0.00 0.00 0.00 76 1010.8
20260503034525 64 339 1.7 1.7 0.00 0.00 0.00 75 1010.6
20260503034022 64 48 0.0 0.0 0.00 0.00 0.00 75 1010.5
20260503033520 64 0 0.0 0.9 0.00 0.00 0.00 74 1010.6
20260503033018 64 33 0.9 0.9 0.00 0.00 0.00 74 1010.6
20260503032516 64 4 1.7 2.6 0.00 0.00 0.00 73 1010.5
20260503032014 64 28 1.7 1.7 0.00 0.00 0.00 73 1010.3
20260503031511 64 22 0.9 0.9 0.00 0.00 0.00 73 1010.3
20260503031008 65 44 0.9 1.7 0.00 0.00 0.00 73 1010.6
20260503030504 65 60 0.0 0.0 0.00 0.00 0.00 73 1010.4
20260503030001 65 304 2.6 2.6 0.00 0.00 0.00 73 1010.5
20260503025458 65 38 2.6 3.5 0.00 0.00 0.00 72 1010.5
20260503024956 65 350 2.6 3.5 0.00 0.00 0.00 72 1010.6
20260503024451 65 29 1.7 1.7 0.00 0.00 0.00 72 1010.6
20260503023949 65 353 0.9 0.9 0.00 0.00 0.00 72 1010.7
20260503023446 65 351 1.7 2.6 0.00 0.00 0.00 72 1010.7
20260503022943 66 308 0.9 1.7 0.00 0.00 0.00 72 1011.2
20260503022437 66 69 0.0 0.0 0.00 0.00 0.00 72 1011.1
20260503021934 66 55 0.0 0.0 0.00 0.00 0.00 71 1011.3
20260503021430 66 108 0.0 0.0 0.00 0.00 0.00 71 1011.5
20260503020928 66 149 0.9 0.9 0.00 0.00 0.00 71 1011.8
20260503020425 66 210 4.3 6.1 0.00 0.00 0.00 70 1011.7
20260503015922 66 205 4.3 7.0 0.00 0.00 0.00 71 1011.6
20260503015419 66 169 6.1 8.7 0.00 0.00 0.00 71 1011.6
20260503014914 66 193 3.5 5.2 0.00 0.00 0.00 71 1011.4
20260503014412 66 106 1.7 2.6 0.00 0.00 0.00 71 1011.2
20260503013910 67 203 1.7 1.7 0.00 0.00 0.00 70 1010.7
20260503013406 68 248 0.9 2.6 0.00 0.00 0.00 68 1010.8
20260503012903 68 261 2.6 3.5 0.00 0.00 0.00 67 1010.7
20260503012401 68 161 0.9 0.9 0.00 0.00 0.00 68 1010.7
20260503011857 69 129 1.7 1.7 0.00 0.00 0.00 65 1010.6
20260503011355 67 169 0.9 1.7 0.00 0.00 0.00 67 1010.7
20260503010851 68 91 0.0 0.9 0.00 0.00 0.00 66 1010.6
20260503010348 68 225 0.9 1.7 0.00 0.00 0.00 66 1010.5
20260503005845 69 169 3.5 3.5 0.00 0.00 0.00 66 1010.6
20260503005343 69 188 3.5 5.2 0.00 0.00 0.00 65 1010.5
20260503004838 68 229 0.9 1.7 0.00 0.00 0.00 67 1010.4
20260503004336 69 162 2.6 3.5 0.00 0.00 0.00 65 1010.4
20260503003833 68 194 1.7 2.6 0.00 0.00 0.00 66 1010.2
20260503003330 68 356 0.0 0.9 0.00 0.00 0.00 67 1010.2
20260503002827 68 255 0.9 1.7 0.00 0.00 0.00 67 1010.1
20260503002324 68 154 1.7 1.7 0.00 0.00 0.00 66 1010.2
20260503001821 68 159 1.7 1.7 0.00 0.00 0.00 67 1010.1
20260503001317 68 127 0.9 1.7 0.00 0.00 0.00 67 1010.2
20260503000815 69 68 0.0 0.9 0.00 0.00 0.00 65 1010.5
20260503000312 68 0 0.0 0.9 0.00 0.00 0.00 66 1010.3
20260502235809 67 50 0.9 0.9 0.00 0.00 0.00 67 1010.4
20260502235306 68 166 0.9 0.9 0.00 0.00 0.00 65 1010.4
20260502234803 68 55 0.0 0.0 0.00 0.00 0.00 66 1010.3
20260502234300 68 242 1.7 1.7 0.00 0.00 0.00 65 1010.4
20260502233755 69 220 0.9 0.9 0.00 0.00 0.00 65 1010.5
20260502233253 69 252 1.7 2.6 0.00 0.00 0.00 64 1010.6
20260502232749 68 116 1.7 1.7 0.00 0.00 0.00 64 1010.8
20260502232246 69 117 0.0 0.0 0.00 0.00 0.00 62 1010.8
20260502231742 69 306 0.9 1.7 0.00 0.00 0.00 62 1011.0
20260502231240 69 133 1.7 2.6 0.00 0.00 0.00 61 1011.0
20260502230739 70 268 2.6 2.6 0.00 0.00 0.00 60 1010.9
20260502230237 70 183 0.9 1.7 0.00 0.00 0.00 62 1011.2
20260502225732 69 154 1.7 2.6 0.00 0.00 0.00 62 1011.2
20260502225230 70 172 1.7 2.6 0.00 0.00 0.00 60 1011.2
20260502224726 68 257 0.9 1.7 0.00 0.00 0.00 62 1011.3
20260502224223 69 244 1.7 2.6 0.00 0.00 0.00 61 1011.2
20260502223720 68 114 0.9 1.7 0.00 0.00 0.00 63 1011.4
20260502223218 68 174 0.9 1.7 0.00 0.00 0.00 61 1011.4
20260502222715 68 85 0.9 2.6 0.00 0.00 0.00 65 1011.6
20260502222212 70 176 4.3 6.1 0.00 0.00 0.00 61 1011.7
20260502221708 69 188 1.7 1.7 0.00 0.00 0.00 61 1011.6
20260502221205 72 181 1.7 1.7 0.00 0.00 0.00 59 1011.6
20260502220701 70 127 0.0 0.9 0.00 0.00 0.00 59 1011.8
20260502220157 68 297 0.9 1.7 0.00 0.00 0.00 63 1011.8
20260502215654 70 201 0.9 1.7 0.00 0.00 0.00 60 1012.0
20260502215151 68 178 2.6 5.2 0.00 0.00 0.00 62 1011.9
20260502214649 67 165 2.6 3.5 0.00 0.00 0.00 63 1012.1
20260502214146 66 87 3.5 3.5 0.00 0.00 0.00 65 1012.5
20260502213643 68 134 1.7 1.7 0.00 0.00 0.00 64 1012.3
20260502213140 67 128 0.9 0.9 0.00 0.00 0.00 61 1012.3
20260502212639 66 68 0.0 0.9 0.00 0.00 0.00 65 1012.5
20260502212137 64 122 0.0 0.9 0.00 0.00 0.00 66 1012.3
20260502211632 64 85 0.9 0.9 0.00 0.00 0.00 66 1012.3
20260502211129 65 66 1.7 2.6 0.00 0.00 0.00 66 1012.7
20260502210627 64 14 0.0 0.9 0.00 0.00 0.00 66 1012.5
20260502210124 65 89 1.7 2.6 0.00 0.00 0.00 65 1012.9
20260502205620 65 292 0.0 0.9 0.00 0.00 0.00 65 1012.6
20260502205117 63 35 0.0 0.0 0.00 0.00 0.00 67 1012.9
20260502204614 63 103 0.0 0.9 0.00 0.00 0.00 68 1012.9
20260502204112 65 23 1.7 2.6 0.00 0.00 0.00 66 1012.9
20260502203609 63 97 1.7 2.6 0.00 0.00 0.00 67 1013.0
20260502203106 63 84 0.0 0.9 0.00 0.00 0.00 67 1013.1
20260502202601 62 22 2.6 2.6 0.00 0.00 0.00 69 1013.2
20260502202100 64 33 2.6 3.5 0.00 0.00 0.00 65 1013.4
20260502201555 65 300 1.7 2.6 0.00 0.00 0.00 64 1013.6
20260502201052 66 50 1.7 2.6 0.00 0.00 0.00 65 1013.4
20260502200548 63 211 1.7 3.5 0.00 0.00 0.00 67 1013.5
20260502200046 64 49 0.0 0.0 0.00 0.00 0.00 66 1013.8